Location: Auckland
(36.8670°S, 174.7670°E)
Time: 11:28:08
(UTC+12:00)

A-11 Canister half - Pass Details

Date: 22 July 2019
Orbit: 1526 x 1683 km, 47.3° (Epoch: 21 August)

Event Time Altitude Azimuth Distance (km) Brightness Sun altitude
Rises 13:14:52 0° 243° (WSW) 4,779 11.5 31.7°
Reaches altitude 10° 13:18:02 10° 238° (WSW) 3,814 11.0 31.5°
Maximum altitude 13:27:37 57° 160° (SSE) 1,876 9.5 31.0°
Drops below altitude 10° 13:37:29 10° 82° (E) 3,920 11.1 30.4°
Sets 13:40:46 0° 78° (ENE) 4,918 11.6 30.2°
